Location: Ferintosh
(52.7647°N, 112.9692°W)
Time: 19:36:48
(UTC+00:00)

A-11 Canister half - Pass Details

Date: 22 May 2024
Orbit: 1515 x 1685 km, 47.2° (Epoch: 12 June)

Event Time Altitude Azimuth Distance (km) Brightness Sun altitude
Rises 13:05:44 0° 267° (W) 4,713 10.9 12.9°
Reaches altitude 10° 13:08:51 10° 265° (W) 3,713 10.5 13.3°
Maximum altitude 13:17:58 62° 188° (S) 1,682 9.4 14.7°
Drops below altitude 10° 13:27:00 10° 110° (ESE) 3,677 12.1 16.0°
Sets 13:30:04 0° 108° (ESE) 4,665 12.6 16.4°
